MDT,Max TemperatureF,Mean TemperatureF,Min TemperatureF,Max Dew PointF,MeanDew PointF,Min DewpointF,Max Humidity, Mean Humidity, Min Humidity, Max Sea Level PressureIn, Mean Sea Level PressureIn, Min Sea Level PressureIn, Max VisibilityMiles, Mean VisibilityMiles, Min VisibilityMiles, Max Wind SpeedMPH, Mean Wind SpeedMPH, Max Gust SpeedMPH,PrecipitationIn, CloudCover, Events, WindDirDegrees
2012-5-1,77,62,48,37,29,18,54,29,15,29.81,29.73,29.68,10,10,10,23,8,32,0.00,2,,273
2012-5-2,75,62,48,39,37,36,66,43,25,29.93,29.83,29.79,10,10,10,25,11,38,0.00,3,Thunderstorm,152
2012-5-3,82,63,44,45,39,36,82,43,20,30.00,29.90,29.79,10,10,10,21,8,30,0.00,1,,125
2012-5-4,87,68,50,41,34,27,58,31,11,29.94,29.86,29.78,10,10,8,21,7,24,0.00,0,,115
2012-5-5,84,66,48,54,40,27,87,45,14,30.11,29.89,29.77,10,10,10,33,11,40,0.00,1,,44
2012-5-6,60,52,44,41,26,9,81,42,18,30.30,30.21,30.11,10,10,10,24,13,29,0.17,3,,337
2012-5-7,51,44,37,41,38,36,93,78,54,30.36,30.29,30.22,10,9,4,15,5,,0.26,7,,12
2012-5-8,64,50,37,37,34,28,93,57,28,30.28,30.21,30.11,10,10,10,10,4,,0.00,0,,185
2012-5-9,78,58,39,39,34,27,87,45,15,30.17,30.03,29.90,10,10,7,12,4,16,0.00,0,,184
2012-5-10,84,66,48,37,31,21,62,31,11,30.02,29.84,29.72,10,10,10,26,6,33,0.00,1,,20
2012-5-11,51,44,37,36,31,25,93,63,46,30.35,30.27,30.06,10,10,8,23,12,29,0.05,7,,74
2012-5-12,48,42,37,41,38,36,93,82,71,30.38,30.34,30.30,10,9,5,9,5,,0.10,7,,133
2012-5-13,64,52,39,43,39,36,93,66,34,30.36,30.32,30.26,10,9,4,10,5,,0.00,3,,30
2012-5-14,78,60,41,39,29,19,76,38,11,30.30,30.23,30.12,10,10,10,12,3,20,0.00,0,,166
2012-5-15,82,63,44,34,29,23,66,28,12,30.29,30.19,30.10,10,10,9,15,7,21,0.00,0,,85
2012-5-16,84,64,44,39,34,27,71,38,13,30.14,30.03,29.93,10,10,10,21,6,24,0.00,1,,315
2012-5-17,82,68,53,43,36,32,59,35,18,29.93,29.85,29.76,10,9,3,20,5,36,0.00,1,,170
2012-5-18,82,65,48,43,37,30,67,36,15,29.79,29.69,29.59,10,9,3,32,7,45,0.00,1,,338
2012-5-19,62,54,46,45,42,36,87,67,39,30.19,30.05,29.80,10,10,10,25,15,31,0.12,5,Thunderstorm,342
2012-5-20,75,58,42,45,40,37,87,55,25,30.26,30.21,30.14,10,10,10,15,5,20,0.00,1,,139
2012-5-21,86,65,44,45,39,32,87,44,15,30.22,30.13,30.00,10,10,5,9,5,16,0.00,0,,89
2012-5-22,93,72,51,46,34,23,58,30,10,30.00,29.79,29.61,10,10,10,22,6,28,0.00,0,,215
2012-5-23,69,58,48,50,41,28,93,57,21,29.76,29.70,29.65,10,10,5,17,11,22,0.26,4,Thunderstorm,5
2012-5-24,66,55,44,45,36,25,93,55,21,29.91,29.73,29.65,10,10,10,22,8,32,0.00,1,,159
2012-5-25,68,57,46,52,44,37,88,65,43,29.92,29.85,29.78,10,10,9,18,8,25,0.00,6,,81
2012-5-26,87,70,53,55,47,25,100,58,12,29.86,29.68,29.42,10,8,2,21,5,33,0.00,4,,149
2012-5-27,69,58,46,34,19,9,62,21,12,29.93,29.83,29.62,10,10,5,29,10,38,0.00,1,,253
2012-5-28,75,60,46,34,27,23,53,30,15,30.07,29.98,29.90,10,10,10,30,8,38,0.00,0,,102
2012-5-29,80,62,44,36,32,27,66,35,17,30.20,30.09,29.98,10,10,5,17,6,16,0.00,0,,118
2012-5-30,82,65,48,39,35,28,66,36,15,30.15,30.01,29.91,10,10,10,23,8,31,0.00,0,,57
2012-5-31,73,58,44,41,38,36,76,47,29,30.22,30.14,30.04,10,10,9,10,5,,0.00,1,,92